Tacoma Narrows, WA
on Wednesday, February 20, 2013

Wednesday
Previous Day Next Day
Daily Summary
 ActualAverageRecord
Temperature
Mean Temperature °F °F  
Max Temperature 45°F 47°F 54°F (2000)
Min Temperature 35°F 36°F 28°F (2006)
Degree Days
Heating Degree Days 25    
Moisture
Dew Point 36°F   
Average Humidity 86    
Maximum Humidity 100    
Minimum Humidity 68    
Precipitation
Precipitation 0.12 in in in ()
Wind
Wind Speed 2 mph   
Max Wind Speed 9 mph   
Max Gust Speed mph   
Visibility 9 miles   
Events Rain   
Averages and records for this station are not official NWS values.
Key: T is trace of precipitation, MM is missing value
Source: NWS Daily Summary
Seasonal Weather Averages
Time(PST)TemperatureDew PointHumidity Pressure Visibility Wind DirectionWind SpeedGust SpeedPrecipitationEvents Conditions
12:53 AM 37.9°F 35.1°F 89% 30.03 in 10.0 miles Calm Calm - N/A   Clear
1:11 AM 35.6°F 32.0°F 87% 30.02 in 1.8 miles Calm Calm - N/A   Mostly Cloudy
1:17 AM 35.6°F 32.0°F 87% 30.02 in 3.0 miles Calm Calm - N/A   Mostly Cloudy
1:53 AM 37.0°F 34.0°F 89% 30.03 in 10.0 miles Calm Calm - N/A   Partly Cloudy
2:43 AM 37.4°F 33.8°F 87% 30.03 in 10.0 miles Calm Calm - N/A   Overcast
2:53 AM 36.0°F 34.0°F 93% 30.05 in 10.0 miles Calm Calm - N/A   Overcast
4:53 AM 37.9°F 36.0°F 93% 30.04 in 10.0 miles SE 4.6 mph - N/A   Overcast
5:53 AM 37.0°F 35.1°F 93% 30.05 in 10.0 miles South 4.6 mph - N/A   Overcast
6:53 AM 37.0°F 35.1°F 93% 30.05 in 10.0 miles Calm Calm - N/A   Overcast
7:20 AM 37.4°F 33.8°F 87% 30.04 in 10.0 miles South 3.5 mph - N/A   Overcast
8:53 AM 37.9°F 34.0°F 86% 30.05 in 10.0 miles SSW 4.6 mph - N/A   Overcast
9:53 AM 39.0°F 34.0°F 82% 30.05 in 10.0 miles South 6.9 mph - N/A   Overcast
10:53 AM 41.0°F 35.1°F 79% 30.06 in 10.0 miles South 8.1 mph - N/A   Overcast
11:53 AM 42.1°F 36.0°F 79% 30.05 in 10.0 miles South 5.8 mph - 0.00 in   Overcast
12:53 PM 44.1°F 36.0°F 73% 30.03 in 10.0 miles South 8.1 mph - N/A   Overcast
1:00 PM 44.6°F 35.6°F 71% 30.02 in 10.0 miles South 9.2 mph - N/A   Overcast
1:53 PM 45.0°F 35.1°F 68% 30.01 in 10.0 miles South 8.1 mph - N/A   Overcast
2:53 PM 43.0°F 36.0°F 76% 30.00 in 10.0 miles South 6.9 mph - 0.01 in Rain Light Rain
3:53 PM 43.0°F 36.0°F 76% 30.00 in 10.0 miles SSE 3.5 mph - 0.00 in   Overcast
4:53 PM 42.1°F 37.0°F 82% 30.01 in 10.0 miles SSW 3.5 mph - 0.03 in Rain Light Rain
5:53 PM 41.0°F 37.0°F 86% 30.01 in 8.0 miles Calm Calm - 0.06 in Rain Light Rain
6:53 PM 41.0°F 37.9°F 89% 30.02 in 10.0 miles Calm Calm - 0.01 in   Overcast
7:53 PM 41.0°F 37.9°F 89% 30.02 in 10.0 miles Calm Calm - 0.00 in   Overcast
8:53 PM 41.0°F 37.9°F 89% 30.02 in 8.0 miles Calm Calm - 0.00 in   Overcast
9:35 PM 39.2°F 37.4°F 93% 30.02 in 1.8 miles WNW 3.5 mph - 0.00 in   Overcast
9:48 PM 39.2°F 39.2°F 100% 30.02 in 3.0 miles Calm Calm - 0.00 in   Overcast
9:53 PM 39.9°F 39.0°F 97% 30.03 in 6.0 miles Calm Calm - 0.00 in Rain Light Rain
10:53 PM 39.9°F 37.9°F 93% 30.04 in 10.0 miles Calm Calm - 0.01 in   Overcast
11:08 PM 39.2°F 37.4°F 93% 30.02 in 10.0 miles Calm Calm - N/A   Overcast
11:53 PM 39.9°F 37.9°F 93% 30.02 in 10.0 miles Calm Calm - N/A   Overcast
Moon Phase
Feb. 20 Feb. 25 Mar. 04 Mar. 11 Mar. 19
Sunrise:07:06 AM (PST) Moon Rise:12:56 PM (PST)2/20
Sunset:05:42 PM (PST) Moon Set:03:42 AM (PST)2/20

Copyright © 2014 The Weather Underground, Inc.